Satellite-Ground Cal/Val Site Overpasses Predictions

Prediction of Satellite NPP Overpassing Cal/Val Site: Antarctic Dome C

Ground Cal/Val Site Location: Latitude: -75.10, Longitude: 123.35; Satellite-Ground Site NADIR distance within 100 km.

Table of predicted overpasses for the next 14.0 days since TLE Epoch: 10/21/2023
Interval Starting Time Ending Time Minimum Distance Time Minimum Distance (km)
1 10/21/2023 07:25:46 10/21/2023 07:26:14 10/21/2023 07:26:00 35.94
2 10/23/2023 15:08:14 10/23/2023 15:08:23 10/23/2023 15:08:18 93.95
3 10/24/2023 14:49:15 10/24/2023 14:49:44 10/24/2023 14:49:29 17.45
4 10/26/2023 07:32:05 10/26/2023 07:32:34 10/26/2023 07:32:20 2.18
5 10/29/2023 14:55:33 10/29/2023 14:56:02 10/29/2023 14:55:48 19.88
6 10/30/2023 14:36:52 10/30/2023 14:37:06 10/30/2023 14:36:59 87.26
7 10/31/2023 07:38:24 10/31/2023 07:38:51 10/31/2023 07:38:37 37.71
8 11/01/2023 07:19:39 11/01/2023 07:19:58 11/01/2023 07:19:48 72.40
